Fort Myers, FL

10:28 PM EDT on June 28, 2017 (GMT -0400)
Page

Weather History for KFMY - January, 2012

Change the Weather History Date:

Tuesday, January 10, 2012

  Actual Average Record
Temperature  
Mean Temperature 69 °F 64 °F  
Max Temperature 81 °F 74 °F 86 °F (1975)
Min Temperature 57 °F 53 °F 32 °F (1970)
Degree Days  
Heating Degree Days 0 4  
Month to date heating degree days 51 40  
Since 1 July heating degree days 79 133  
Cooling Degree Days 4 3  
Month to date cooling degree days 12 30  
Year to date cooling degree days 12 30  
Growing Degree Days 18 (Base 50)    
Moisture  
Dew Point 57 °F    
Average Humidity 70    
Maximum Humidity 93    
Minimum Humidity 39    
Precipitation  
Precipitation 0.00 in 0.06 in 2.55 in (1991)
Month to date precipitation 0.00 0.63  
Year to date precipitation 0.00 0.63  
Sea Level Pressure  
Sea Level Pressure 30.05 in    
Wind  
Wind Speed 3 mph (SSE)    
Max Wind Speed 13 mph    
Max Gust Speed 16 mph    
Visibility 9 miles    
Events      
T = Trace of Precipitation, MM = Missing Value Source: NWS Daily Summary

Daily Weather History Graph

Daily Weather History Graph

Search for Another Location

Airport or City:

Trip Planner

Search our weather history database for the weather conditions in past years. The results will help you decide how hot, cold, wet, or windy it might be!

Date:

Astronomy

Jan. 10, 2012 Rise Set
Actual Time 7:17 AM EST 5:52 PM EST
Civil Twilight 6:52 AM EST 6:17 PM EST
Nautical Twilight 6:23 AM EST 6:46 PM EST
Astronomical Twilight 5:55 AM EST 7:14 PM EST
Moon 7:30 PM EST (1/10) 8:04 AM EST (1/10)
Length of Visible Light 11h 25m
Length of Day
10h 35m
Full, 98% of the Moon is Illuminated
Jan 10
Full
Jan 16
Last Quarter
Jan 23
New
Jan 30
First Quarter
Feb 7
Full

Hourly Weather History & Observations

Time (EST) Temp. Heat Index Dew Point Humidity Pressure Visibility Wind Dir Wind Speed Gust Speed Precip Events Conditions
12:53 AM 62.1 °F - 57.9 °F 86% 30.10 in 10.0 mi Calm Calm - N/A   Clear
1:53 AM 60.1 °F - 57.0 °F 90% 30.10 in 10.0 mi Calm Calm - N/A   Clear
2:53 AM 59.0 °F - 55.9 °F 90% 30.09 in 10.0 mi Calm Calm - N/A   Clear
3:53 AM 57.9 °F - 55.0 °F 90% 30.08 in 8.0 mi Calm Calm - N/A   Clear
4:53 AM 57.0 °F - 55.0 °F 93% 30.09 in 10.0 mi Calm Calm - N/A   Clear
5:53 AM 57.0 °F - 55.0 °F 93% 30.09 in 6.0 mi Calm Calm - N/A   Clear
6:53 AM 57.9 °F - 55.0 °F 90% 30.10 in 7.0 mi Calm Calm - N/A   Clear
7:53 AM 57.9 °F - 55.9 °F 93% 30.09 in 4.0 mi ESE 3.5 mph - N/A   Clear
9:53 AM 71.1 °F - 60.1 °F 68% 30.12 in 10.0 mi ESE 6.9 mph - N/A   Clear
10:53 AM 75.0 °F - 59.0 °F 57% 30.10 in 10.0 mi East 6.9 mph - N/A   Clear
11:53 AM 77.0 °F - 55.9 °F 48% 30.06 in 10.0 mi ESE 9.2 mph - N/A   Clear
12:53 PM 80.1 °F 79.9 °F 53.1 °F 39% 30.03 in 10.0 mi East 10.4 mph 16.1 mph N/A   Clear
1:53 PM 80.1 °F 79.9 °F 53.1 °F 39% 30.00 in 10.0 mi SE 6.9 mph - N/A   Clear
2:53 PM 79.0 °F - 57.0 °F 47% 29.98 in 10.0 mi SW 9.2 mph - N/A   Mostly Cloudy
3:53 PM 75.9 °F - 57.9 °F 54% 29.98 in 10.0 mi SW 8.1 mph - N/A   Partly Cloudy
4:53 PM 75.9 °F - 57.0 °F 52% 29.98 in 10.0 mi SSW 6.9 mph - N/A   Clear
5:53 PM 73.9 °F - 57.9 °F 57% 29.99 in 10.0 mi Calm Calm - N/A   Partly Cloudy
6:53 PM 71.1 °F - 57.9 °F 63% 29.99 in 10.0 mi Calm Calm - N/A   Clear
8:53 PM 68.0 °F - 59.0 °F 73% 30.01 in 10.0 mi South 4.6 mph - N/A   Partly Cloudy
9:53 PM 66.0 °F - 59.0 °F 78% 30.02 in 10.0 mi Calm Calm - N/A   Mostly Cloudy
11:53 PM 66.9 °F - 59.0 °F 76% 30.00 in 10.0 mi South 4.6 mph - N/A   Clear